Simultaneous Nadir Overpasses (SNOs) Predictions

Prediction of SNOs between GOES-17 and METOP-C Satellite Orbit:

Table of predicted SNOs for the next 14.0 days since TLE Epoch: 1/28/2023
Index Date Time (GOES-17) GOES-17 Lat,Lon METOP-C Lat,Lon Distance(km) Time Diff (sec)
1 01/28/2023 17:15:27 0.01,-118.00 -0.45,-115.95 233.60 80
2 01/30/2023 05:31:43 -0.01,-116.22 -0.95,-120.47 484.61 80
3 01/31/2023 05:11:01 -0.01,-115.07 -0.06,-115.43 41.01 80
4 02/01/2023 04:52:57 -0.01,-113.91 0.77,-110.38 402.54 80
5 02/02/2023 17:09:02 0.01,-112.16 0.61,-114.85 307.35 80
6 02/03/2023 16:51:00 0.01,-111.00 -0.28,-109.81 136.15 80
7 02/06/2023 04:46:33 -0.02,-108.06 -0.26,-109.28 138.49 80
8 02/07/2023 04:28:29 -0.03,-106.91 0.58,-104.23 305.17 80
9 02/08/2023 16:44:35 0.03,-105.15 0.80,-108.71 404.49 80
10 02/09/2023 16:26:31 0.03,-104.00 -0.04,-103.65 39.24 80
11 02/10/2023 16:05:48 0.03,-102.85 -0.89, -98.60 483.18 80
